Location: Bittkow
(50.3000°N, 19.0000°E)
Time: 03:37:10
(UTC+00:00)

Meteor 1-11 Rocket - Pass Details

Date: 19 September 2020
Orbit: 830 x 916 km, 81.2° (Epoch: 18 October)

Event Time Altitude Azimuth Distance (km) Brightness Sun altitude
Rises 03:23:53 0° 345° (NNW) 3,526 6.9 -10.6°
Reaches altitude 10° 03:26:24 10° 342° (NNW) 2,569 6.2 -10.2°
Maximum altitude 03:32:07 59° 264° (W) 1,007 3.8 -9.4°
Drops below altitude 10° 03:37:40 10° 186° (S) 2,494 6.0 -8.5°
Sets 03:40:05 0° 183° (S) 3,413 6.7 -8.1°
